Location: Monfort
(47.1967°N, 0.2115°W)
Time: 04:05:57
(UTC+00:00)

Lacrosse 5 - Pass Details

Date: 24 October 2020
Orbit: 714 x 725 km, 57.0° (Epoch: 30 November)

Event Time Altitude Azimuth Distance (km) Brightness Sun altitude
Rises 19:10:18 0° 289° (WNW) 3,118 6.5 -23.3°
Reaches altitude 10° 19:13:01 10° 302° (WNW) 2,198 5.3 -23.8°
Maximum altitude 19:17:17 27° 360° (N) 1,374 3.4 -24.5°
Enters shadow 19:18:12 25° 18° (NNE) 1,423 3.3 -24.6°
